GW5741 Weather Reports


time (UTC)temp
C
wind
direction
speed
KPH
gust
KPH
rain 1hr
cm
rain 24hr
cm
rain mn
cm
humidity
%
barometer
mb
20260906065949 17 360 0.0 0.0 0.00 0.00 0.13 99 1013.1
20260906065449 17 120 0.0 1.6 0.03 0.00 0.13 99 1013.0
20260906064949 17 77 0.0 1.6 0.03 0.00 0.13 99 1013.0
20260906064449 17 360 0.0 0.0 0.03 0.00 0.13 99 1013.0
20260906063949 17 360 0.0 0.0 0.03 0.00 0.13 99 1013.1
20260906063449 17 360 0.0 0.0 0.03 0.00 0.13 99 1013.0
20260906062949 17 94 0.0 3.2 0.03 0.00 0.13 98 1013.2
20260906062449 17 100 1.6 3.2 0.03 0.00 0.13 98 1013.2
20260906061949 17 97 1.6 3.2 0.03 0.00 0.13 98 1013.2
20260906061449 17 360 0.0 0.0 0.03 0.00 0.13 98 1013.4
20260906060949 17 97 1.6 4.8 0.03 0.00 0.13 98 1013.4
20260906060449 17 108 3.2 4.8 0.03 0.00 0.15 99 1013.4
20260906055948 17 84 0.0 1.6 0.00 0.00 0.15 99 1013.4
20260906055449 17 360 0.0 0.0 0.00 0.00 0.13 99 1013.4
20260906054949 17 101 1.6 3.2 0.00 0.00 0.13 99 1013.3
20260906054450 17 116 0.0 3.2 0.00 0.00 0.13 99 1013.3
20260906053949 17 104 0.0 1.6 0.00 0.00 0.13 99 1013.3
20260906053450 17 360 0.0 0.0 0.00 0.00 0.13 99 1013.3
20260906052949 17 102 0.0 1.6 0.00 0.00 0.13 99 1013.3
20260906052450 17 360 0.0 0.0 0.10 0.00 0.13 99 1013.3
20260906051949 17 360 0.0 0.0 0.10 0.00 0.10 98 1013.2
20260906051449 17 360 0.0 0.0 0.10 0.00 0.10 98 1013.2
20260906050949 17 360 0.0 0.0 0.10 0.00 0.10 98 1013.2
20260906050449 17 360 0.0 0.0 0.10 0.00 0.10 98 1013.3
20260906045949 17 360 0.0 0.0 0.10 0.00 0.10 97 1013.3
20260906045449 17 360 0.0 0.0 0.10 0.00 0.10 97 1013.3
20260906044949 17 360 0.0 0.0 0.10 0.00 0.10 97 1013.3
20260906044448 18 360 0.0 0.0 0.10 0.00 0.10 97 1013.3
20260906043949 18 360 0.0 0.0 0.10 0.00 0.10 96 1013.2
20260906043449 18 360 0.0 0.0 0.10 0.00 0.10 96 1013.3
20260906042950 18 360 0.0 0.0 0.10 0.00 0.10 96 1013.3
20260906042449 18 360 0.0 0.0 0.10 0.00 0.10 94 1013.2
20260906041949 18 360 0.0 0.0 0.00 0.00 0.10 93 1013.3
20260906041449 18 82 1.6 3.2 0.00 0.00 0.00 92 1013.3
20260906040949 18 82 0.0 1.6 0.00 0.00 0.00 92 1013.4
20260906040449 18 360 0.0 0.0 0.00 0.00 0.00 92 1013.3
20260906035951 18 71 0.0 1.6 0.00 0.00 0.00 92 1013.3
20260906035450 18 360 0.0 0.0 0.00 0.00 0.00 91 1013.1
20260906034954 18 95 0.0 0.0 0.00 0.00 0.00 91 1013.1
20260906034449 18 86 0.0 3.2 0.00 0.00 0.00 91 1013.1
20260906033949 18 76 0.0 0.0 0.00 0.00 0.00 91 1013.0
20260906033449 18 360 0.0 0.0 0.00 0.00 0.00 91 1013.0
20260906032949 18 360 0.0 0.0 0.00 0.00 0.00 91 1013.0
20260906032450 18 360 0.0 0.0 0.00 0.00 0.00 90 1013.0
20260906031949 18 360 0.0 0.0 0.00 0.00 0.00 90 1012.9
20260906031449 18 109 0.0 1.6 0.00 0.00 0.00 89 1012.9
20260906030952 18 70 0.0 0.0 0.00 0.00 0.00 89 1012.8
20260906030449 18 73 0.0 1.6 0.00 0.00 0.00 89 1012.8
20260906025949 18 74 0.0 1.6 0.00 0.00 0.00 89 1012.8
20260906025449 18 75 0.0 3.2 0.00 0.00 0.00 88 1012.8
20260906024951 18 83 0.0 1.6 0.00 0.00 0.00 88 1012.8
20260906024449 18 79 0.0 3.2 0.00 0.00 0.00 88 1012.9
20260906023950 18 72 1.6 3.2 0.00 0.00 0.00 88 1012.8
20260906023449 18 360 0.0 0.0 0.00 0.00 0.00 88 1012.8
20260906022949 18 96 0.0 1.6 0.00 0.00 0.00 88 1012.8
20260906022449 18 360 0.0 0.0 0.00 0.00 0.00 88 1012.7
20260906021949 18 105 0.0 1.6 0.00 0.00 0.00 87 1012.7
20260906021449 18 360 0.0 0.0 0.00 0.00 0.00 87 1012.7
20260906020949 18 360 0.0 0.0 0.00 0.00 0.00 87 1012.7
20260906020450 18 360 0.0 0.0 0.00 0.00 0.00 86 1012.7
20260906015949 18 360 0.0 0.0 0.00 0.00 0.00 86 1012.8
20260906015449 19 360 0.0 0.0 0.00 0.00 0.00 85 1012.8
20260906014950 19 360 0.0 0.0 0.00 0.00 0.00 85 1012.7
20260906014449 19 360 0.0 0.0 0.00 0.00 0.00 84 1012.8
20260906013950 19 101 0.0 0.0 0.00 0.00 0.00 83 1012.6
20260906013449 20 360 0.0 0.0 0.00 0.00 0.00 83 1012.5
20260906012949 20 360 0.0 0.0 0.00 0.00 0.00 82 1012.5
20260906012449 20 360 0.0 0.0 0.00 0.00 0.00 81 1012.4
20260906011949 20 88 0.0 0.0 0.00 0.00 0.00 80 1012.3
20260906011449 20 360 0.0 0.0 0.00 0.00 0.00 80 1012.3
20260906010949 20 83 0.0 1.6 0.00 0.00 0.00 79 1012.3
20260906010449 20 360 0.0 0.0 0.00 0.00 0.00 79 1012.2
20260906005949 20 74 0.0 3.2 0.00 0.00 0.00 79 1012.1
20260906005450 20 99 0.0 1.6 0.00 0.00 0.00 79 1012.0
20260906004949 20 25 0.0 1.6 0.00 0.00 0.00 78 1012.0
20260906004449 20 107 0.0 0.0 0.00 0.00 0.00 78 1012.0
20260906003950 20 360 0.0 0.0 0.00 0.00 0.00 77 1012.0
20260906003449 21 75 0.0 1.6 0.00 0.00 0.00 77 1011.9
20260906002949 21 360 0.0 0.0 0.00 0.00 0.00 77 1012.0
20260906002449 21 360 0.0 0.0 0.00 0.00 0.00 75 1011.9
20260906001949 21 80 0.0 1.6 0.00 0.00 0.00 74 1011.7
20260906001449 21 57 0.0 0.0 0.00 0.00 0.00 74 1011.7
20260906000949 21 78 0.0 3.2 0.00 0.00 0.00 74 1011.7
20260906000449 21 86 0.0 1.6 0.00 0.00 0.00 73 1011.6
20260905235949 21 71 0.0 1.6 0.00 0.00 0.00 72 1011.5
20260905235449 22 50 0.0 1.6 0.00 0.00 0.00 72 1011.5
20260905234515 22 85 0.0 1.6 0.00 0.00 0.00 71 1011.5
20260905233949 22 48 0.0 3.2 0.00 0.00 0.00 70 1011.4
20260905233449 22 360 0.0 0.0 0.00 0.00 0.00 71 1011.4
20260905232949 22 101 0.0 1.6 0.00 0.00 0.00 70 1011.3
20260905232450 22 82 0.0 1.6 0.00 0.00 0.00 69 1011.2
20260905231949 22 82 0.0 0.0 0.00 0.00 0.00 69 1011.3
20260905231451 23 70 0.0 1.6 0.00 0.00 0.00 69 1011.3
20260905230949 23 84 0.0 3.2 0.00 0.00 0.00 68 1011.2
20260905230449 23 360 0.0 0.0 0.00 0.00 0.00 68 1011.2
20260905225949 23 74 0.0 3.2 0.00 0.00 0.00 67 1011.0
20260905225449 23 118 1.6 3.2 0.00 0.00 0.00 67 1010.9
20260905224950 23 82 1.6 3.2 0.00 0.00 0.00 66 1011.0
20260905224450 23 59 0.0 3.2 0.00 0.00 0.00 64 1011.0
20260905223949 23 18 0.0 1.6 0.00 0.00 0.00 64 1010.9
20260905223449 23 77 0.0 3.2 0.00 0.00 0.00 63 1010.8
20260905222949 23 75 1.6 3.2 0.00 0.00 0.00 63 1010.8
20260905222449 23 94 0.0 1.6 0.00 0.00 0.00 64 1010.8
20260905221949 23 110 0.0 3.2 0.00 0.00 0.00 62 1010.7
20260905221449 23 104 1.6 3.2 0.00 0.00 0.00 63 1010.8
20260905220949 23 79 0.0 3.2 0.00 0.00 0.00 63 1010.7
20260905220449 24 114 1.6 6.4 0.00 0.00 0.00 62 1010.7
20260905215949 24 360 0.0 1.6 0.00 0.00 0.00 61 1010.6
20260905215449 24 66 1.6 3.2 0.00 0.00 0.00 60 1010.7
20260905214949 24 46 0.0 3.2 0.00 0.00 0.00 59 1010.7
20260905214450 24 103 1.6 4.8 0.00 0.00 0.00 60 1010.7
20260905213949 24 92 0.0 1.6 0.00 0.00 0.00 61 1010.7
20260905213449 24 83 0.0 3.2 0.00 0.00 0.00 60 1010.7
20260905212949 25 95 0.0 3.2 0.00 0.00 0.00 60 1010.6
20260905212449 25 74 0.0 3.2 0.00 0.00 0.00 58 1010.5
20260905211951 25 124 0.0 3.2 0.00 0.00 0.00 57 1010.5
20260905211450 25 91 1.6 3.2 0.00 0.00 0.00 56 1010.4
20260905210949 25 77 1.6 3.2 0.00 0.00 0.00 54 1010.3
20260905210449 26 66 0.0 3.2 0.00 0.00 0.00 53 1010.3
20260905205949 26 21 1.6 3.2 0.00 0.00 0.00 51 1010.3
20260905205449 27 351 1.6 3.2 0.00 0.00 0.00 48 1010.2
20260905204949 27 41 3.2 6.4 0.00 0.00 0.00 47 1010.1
20260905204449 27 66 1.6 3.2 0.00 0.00 0.00 48 1010.1
20260905203949 26 42 3.2 6.4 0.00 0.00 0.00 48 1010.0
20260905203449 26 71 3.2 6.4 0.00 0.00 0.00 50 1010.0
20260905202949 26 56 1.6 3.2 0.00 0.00 0.00 51 1010.0
20260905202449 26 137 1.6 3.2 0.00 0.00 0.00 54 1009.9
20260905201949 26 39 1.6 4.8 0.00 0.00 0.00 52 1010.0
20260905201449 25 121 1.6 3.2 0.00 0.00 0.00 55 1010.1
20260905200949 26 55 3.2 4.8 0.00 0.00 0.00 55 1010.1
20260905200449 26 54 3.2 8.0 0.00 0.00 0.00 53 1010.1
20260905195949 26 81 3.2 4.8 0.00 0.00 0.00 52 1010.1
20260905195449 26 54 1.6 4.8 0.00 0.00 0.00 53 1010.0
20260905194949 26 62 1.6 3.2 0.00 0.00 0.00 51 1009.9
20260905194449 26 24 3.2 3.2 0.00 0.00 0.00 53 1010.0
20260905193949 26 44 3.2 3.2 0.00 0.00 0.00 54 1010.0
20260905193449 26 10 1.6 3.2 0.00 0.00 0.00 55 1010.1
20260905192949 26 64 1.6 3.2 0.00 0.00 0.00 53 1010.1
20260905192449 26 64 3.2 4.8 0.00 0.00 0.00 54 1010.1
20260905191949 26 50 1.6 4.8 0.00 0.00 0.00 52 1010.1
20260905191449 26 56 4.8 6.4 0.00 0.00 0.00 53 1010.1
20260905190950 26 112 0.0 1.6 0.00 0.00 0.00 55 1010.0
20260905190449 26 63 3.2 4.8 0.00 0.00 0.00 52 1010.1
20260905185949 25 21 0.0 1.6 0.00 0.00 0.00 53 1010.1
20260905185449 25 37 1.6 4.8 0.00 0.00 0.00 55 1010.2
20260905184949 26 59 3.2 6.4 0.00 0.00 0.00 52 1010.1
20260905184449 26 52 1.6 4.8 0.00 0.00 0.00 53 1010.2
20260905183949 25 52 3.2 4.8 0.00 0.00 0.00 54 1010.2
20260905183449 25 50 3.2 6.4 0.00 0.00 0.00 55 1010.2
20260905182949 25 76 0.0 1.6 0.00 0.00 0.00 56 1010.3
20260905182451 25 65 1.6 4.8 0.00 0.00 0.00 55 1010.3
20260905181949 25 68 3.2 6.4 0.00 0.00 0.00 56 1010.2
20260905181450 25 31 1.6 4.8 0.00 0.00 0.00 55 1010.4
20260905180949 25 83 3.2 6.4 0.00 0.00 0.00 56 1010.4
20260905180449 25 56 1.6 3.2 0.00 0.00 0.00 57 1010.5
20260905175949 25 40 1.6 3.2 0.00 0.00 0.00 57 1010.5
20260905175449 24 33 1.6 4.8 0.00 0.00 0.00 57 1010.5
20260905174950 24 82 1.6 4.8 0.00 0.00 0.00 57 1010.5
20260905174449 25 39 1.6 4.8 0.00 0.00 0.00 57 1010.6
20260905173950 25 43 1.6 4.8 0.00 0.00 0.00 55 1010.6
20260905173449 25 46 3.2 4.8 0.00 0.00 0.00 54 1010.6
20260905172949 25 81 1.6 3.2 0.00 0.00 0.00 56 1010.7
20260905172449 26 55 1.6 3.2 0.00 0.00 0.00 55 1010.7
20260905171949 26 76 1.6 3.2 0.00 0.00 0.00 53 1010.6
20260905171450 25 22 0.0 3.2 0.00 0.00 0.00 54 1010.7
20260905170949 25 85 1.6 4.8 0.00 0.00 0.00 58 1010.7
20260905170449 25 65 1.6 4.8 0.00 0.00 0.00 58 1010.7
20260905165950 25 85 0.0 3.2 0.00 0.00 0.00 58 1010.7
20260905165449 25 62 3.2 4.8 0.00 0.00 0.00 57 1010.7
20260905164950 25 65 3.2 3.2 0.00 0.00 0.00 58 1010.8
20260905164449 25 107 0.0 3.2 0.00 0.00 0.00 57 1010.8
20260905163949 24 38 1.6 3.2 0.00 0.00 0.00 58 1010.7
20260905163449 25 46 3.2 8.0 0.00 0.00 0.00 57 1010.8
20260905162949 25 51 3.2 6.4 0.00 0.00 0.00 57 1010.7
20260905162450 25 77 3.2 4.8 0.00 0.00 0.00 58 1010.7
20260905161949 24 98 1.6 3.2 0.00 0.00 0.00 57 1010.7
20260905161450 24 52 3.2 6.4 0.00 0.00 0.00 59 1010.7
20260905160949 24 94 1.6 4.8 0.00 0.00 0.00 60 1010.7
20260905160449 23 62 3.2 4.8 0.00 0.00 0.00 62 1010.7
20260905155949 23 73 1.6 4.8 0.00 0.00 0.00 64 1010.8
20260905155449 24 54 3.2 8.0 0.00 0.00 0.00 60 1010.8
20260905154950 24 54 3.2 4.8 0.00 0.00 0.00 61 1010.8
20260905154449 24 66 3.2 4.8 0.00 0.00 0.00 60 1010.7
20260905153950 24 63 3.2 6.4 0.00 0.00 0.00 60 1010.7
20260905153449 24 64 1.6 4.8 0.00 0.00 0.00 60 1010.6
20260905152949 24 61 3.2 4.8 0.00 0.00 0.00 59 1010.7
20260905152449 24 84 3.2 6.4 0.00 0.00 0.00 60 1010.8
20260905151949 24 4 1.6 6.4 0.00 0.00 0.00 59 1010.8
20260905151449 23 58 3.2 6.4 0.00 0.00 0.00 61 1010.8
20260905150949 23 79 1.6 3.2 0.00 0.00 0.00 62 1010.8
20260905150449 23 15 1.6 4.8 0.00 0.00 0.00 62 1010.8
20260905145949 23 73 3.2 6.4 0.00 0.00 0.00 65 1010.9
20260905145449 22 35 1.6 3.2 0.00 0.00 0.00 66 1010.8
20260905144951 22 67 1.6 3.2 0.00 0.00 0.00 65 1010.7
20260905144449 22 89 3.2 6.4 0.00 0.00 0.00 65 1010.9
20260905143949 22 34 0.0 1.6 0.00 0.00 0.00 68 1010.9
20260905143449 22 74 1.6 3.2 0.00 0.00 0.00 69 1010.9
20260905142949 22 71 3.2 4.8 0.00 0.00 0.00 70 1010.9
20260905142449 22 84 3.2 3.2 0.00 0.00 0.00 69 1010.8
20260905141951 22 71 3.2 3.2 0.00 0.00 0.00 70 1010.8
20260905141449 22 48 4.8 6.4 0.00 0.00 0.00 70 1010.8
20260905140949 22 66 1.6 3.2 0.00 0.00 0.00 72 1010.7
20260905140449 21 57 3.2 3.2 0.00 0.00 0.00 72 1010.8
20260905135949 21 83 1.6 1.6 0.00 0.00 0.00 72 1010.8
20260905135449 21 81 1.6 3.2 0.00 0.00 0.00 72 1010.8
20260905134949 21 84 3.2 4.8 0.00 0.00 0.00 73 1010.8
20260905134450 21 89 0.0 1.6 0.00 0.00 0.00 75 1010.9
20260905133949 21 91 0.0 0.0 0.00 0.00 0.00 75 1010.9
20260905133451 21 65 1.6 3.2 0.00 0.00 0.00 75 1010.9
20260905132950 20 91 0.0 1.6 0.00 0.00 0.00 77 1011.0
20260905132450 21 94 0.0 1.6 0.00 0.00 0.00 76 1011.0
20260905131949 21 55 3.2 3.2 0.00 0.00 0.00 75 1011.0
20260905131449 21 360 1.6 1.6 0.00 0.00 0.00 76 1011.0
20260905130949 20 67 0.0 0.0 0.00 0.00 0.00 76 1011.2
20260905130449 20 63 1.6 3.2 0.00 0.00 0.00 76 1011.2
20260905125949 20 67 3.2 3.2 0.00 0.00 0.00 76 1011.2
20260905125028 20 69 1.6 3.2 0.00 0.00 0.00 77 1011.0
20260905124449 20 86 0.0 3.2 0.00 0.00 0.00 78 1011.0
20260905123949 20 62 1.6 4.8 0.00 0.00 0.00 78 1011.2
20260905123449 20 59 3.2 4.8 0.00 0.00 0.00 78 1011.2
20260905122949 20 48 1.6 4.8 0.00 0.00 0.00 78 1011.3
20260905122450 20 50 3.2 4.8 0.00 0.00 0.00 78 1011.3
20260905121950 20 47 1.6 3.2 0.00 0.00 0.00 77 1011.3
20260905121449 20 65 3.2 6.4 0.00 0.00 0.00 78 1011.3
20260905120949 19 40 3.2 4.8 0.00 0.00 0.00 78 1011.3
20260905120450 19 58 1.6 3.2 0.00 0.00 0.00 79 1011.2
20260905115949 19 30 1.6 6.4 0.00 0.00 0.00 79 1011.2
20260905115449 18 80 1.6 4.8 0.00 0.00 0.00 80 1011.2
20260905114949 18 55 1.6 4.8 0.00 0.00 0.00 81 1011.2
20260905114449 18 64 1.6 3.2 0.00 0.00 0.00 81 1011.0
20260905113949 18 76 0.0 3.2 0.00 0.00 0.00 83 1010.9
20260905113449 17 125 1.6 3.2 0.00 0.00 0.00 84 1010.9
20260905112949 17 76 3.2 3.2 0.00 0.00 0.00 85 1010.8
20260905112449 17 178 0.0 1.6 0.00 0.00 0.00 86 1010.7
20260905111949 17 65 0.0 0.0 0.00 0.00 0.00 86 1010.7
20260905111451 17 73 0.0 3.2 0.00 0.00 0.00 86 1010.7
20260905110949 17 57 1.6 3.2 0.00 0.00 0.00 86 1010.6
20260905110450 17 360 0.0 0.0 0.00 0.00 0.00 86 1010.5
20260905105949 17 84 0.0 1.6 0.00 0.00 0.00 87 1010.4
20260905105450 17 77 0.0 3.2 0.00 0.00 0.00 87 1010.4
20260905104950 16 59 0.0 1.6 0.00 0.00 0.00 88 1010.4
20260905104449 16 360 0.0 0.0 0.00 0.00 0.00 88 1010.3
20260905103951 16 82 0.0 3.2 0.00 0.00 0.00 88 1010.3
20260905103449 16 91 1.6 3.2 0.00 0.00 0.00 87 1010.3
20260905102949 16 86 0.0 1.6 0.00 0.00 0.00 88 1010.3
20260905102449 16 91 0.0 3.2 0.00 0.00 0.00 88 1010.3
20260905101949 16 360 0.0 0.0 0.00 0.00 0.00 88 1010.2
20260905101450 17 360 0.0 0.0 0.00 0.00 0.00 87 1010.2
20260905100949 17 113 0.0 1.6 0.00 0.00 0.00 86 1010.2
20260905100449 17 360 0.0 0.0 0.00 0.00 0.00 86 1010.1
20260905095950 17 104 0.0 1.6 0.00 0.00 0.00 86 1010.1
20260905095449 17 360 0.0 0.0 0.00 0.00 0.00 85 1010.2
20260905094949 17 360 0.0 0.0 0.00 0.00 0.00 84 1010.1
20260905094449 17 360 0.0 0.0 0.00 0.00 0.00 83 1010.1
20260905093949 17 360 0.0 0.0 0.00 0.00 0.00 83 1010.0
20260905093450 17 360 0.0 0.0 0.00 0.00 0.00 83 1010.0
20260905092949 18 360 0.0 0.0 0.00 0.00 0.00 82 1010.0
20260905092450 18 360 0.0 0.0 0.00 0.00 0.00 81 1010.0
20260905091949 18 123 0.0 1.6 0.00 0.00 0.00 80 1010.0
20260905091449 18 360 0.0 0.0 0.00 0.00 0.00 79 1010.0
20260905090949 18 48 0.0 1.6 0.00 0.00 0.00 79 1010.0
20260905090450 18 113 0.0 3.2 0.00 0.00 0.00 79 1009.9
20260905085950 18 360 0.0 0.0 0.00 0.00 0.00 78 1009.9
20260905085449 18 100 0.0 1.6 0.00 0.00 0.00 77 1010.0
20260905084951 18 360 0.0 0.0 0.00 0.00 0.00 77 1010.0
20260905084450 19 360 0.0 0.0 0.00 0.00 0.00 76 1010.0
20260905083949 19 360 0.0 0.0 0.00 0.00 0.00 76 1010.0
20260905083450 19 72 0.0 1.6 0.00 0.00 0.00 75 1010.0
20260905082949 19 360 0.0 0.0 0.00 0.00 0.00 75 1010.0
20260905082450 19 360 0.0 0.0 0.00 0.00 0.00 74 1010.0
20260905081949 20 360 0.0 0.0 0.00 0.00 0.00 74 1010.0
20260905081450 20 62 1.6 3.2 0.00 0.00 0.00 73 1010.1
20260905080949 20 360 0.0 0.0 0.00 0.00 0.00 73 1010.0
20260905080452 20 98 1.6 3.2 0.00 0.00 0.00 73 1010.0
20260905075949 20 360 0.0 0.0 0.00 0.00 0.00 73 1010.1
20260905075450 20 51 0.0 1.6 0.00 0.00 0.00 71 1010.1
20260905074949 20 72 1.6 3.2 0.00 0.00 0.00 72 1010.0
20260905074449 20 70 1.6 4.8 0.00 0.00 0.00 71 1009.9
20260905073949 20 68 0.0 3.2 0.00 0.00 0.00 71 1010.0
20260905073450 20 67 1.6 3.2 0.00 0.00 0.00 71 1010.0
20260905072949 20 43 1.6 3.2 0.00 0.00 0.00 71 1009.9
20260905072449 20 67 1.6 4.8 0.00 0.00 0.00 70 1009.9
20260905071949 20 78 0.0 3.2 0.00 0.00 0.00 71 1010.0
20260905071449 21 63 1.6 3.2 0.00 0.00 0.00 70 1010.0
20260905070949 21 45 0.0 3.2 0.00 0.00 0.00 70 1010.1
20260905070449 21 68 3.2 6.4 0.00 0.00 0.00 70 1010.1